#datetime,building,power
2024-01-23T10:34:00,mnr,18.52
2024-01-23T10:35:00,mnr,19.30
2024-01-23T10:36:00,mnr,18.93
2024-01-23T10:37:00,mnr,18.73
2024-01-23T10:38:00,mnr,19.46
2024-01-23T10:39:00,mnr,18.61
2024-01-23T10:40:00,mnr,18.50
2024-01-23T10:41:00,mnr,18.57
2024-01-23T10:42:00,mnr,18.58
2024-01-23T10:43:00,mnr,18.47
2024-01-23T10:44:00,mnr,19.57
2024-01-23T10:45:00,mnr,18.50
2024-01-23T10:46:00,mnr,18.46
2024-01-23T10:47:00,mnr,19.53
2024-01-23T10:48:00,mnr,18.47
2024-01-23T10:49:00,mnr,19.29
2024-01-23T10:50:00,mnr,18.19
2024-01-23T10:51:00,mnr,18.52
2024-01-23T10:52:00,mnr,18.47
2024-01-23T10:53:00,mnr,17.40
2024-01-23T10:54:00,mnr,16.96
2024-01-23T10:55:00,mnr,17.09
2024-01-23T10:56:00,mnr,17.02
2024-01-23T10:57:00,mnr,18.58
2024-01-23T10:58:00,mnr,16.93
2024-01-23T10:59:00,mnr,16.91
2024-01-23T11:00:00,mnr,17.25
2024-01-23T11:01:00,mnr,17.18
2024-01-23T11:02:00,mnr,17.57
2024-01-23T11:03:00,mnr,18.68
2024-01-23T11:04:00,mnr,15.18
2024-01-23T11:05:00,mnr,17.57
2024-01-23T11:06:00,mnr,17.55
2024-01-23T11:07:00,mnr,17.64
2024-01-23T11:08:00,mnr,18.51
2024-01-23T11:09:00,mnr,17.92
2024-01-23T11:10:00,mnr,19.55
2024-01-23T11:11:00,mnr,19.33
2024-01-23T11:12:00,mnr,17.74
2024-01-23T11:13:00,mnr,17.88
2024-01-23T11:14:00,mnr,19.89
2024-01-23T11:15:00,mnr,19.39
2024-01-23T11:16:00,mnr,19.36
2024-01-23T11:17:00,mnr,19.11
2024-01-23T11:18:00,mnr,19.93
2024-01-23T11:19:00,mnr,18.78
2024-01-23T11:20:00,mnr,18.74
2024-01-23T11:21:00,mnr,18.71
2024-01-23T11:22:00,mnr,20.07
2024-01-23T11:23:00,mnr,18.80
2024-01-23T11:24:00,mnr,19.18
2024-01-23T11:25:00,mnr,18.73
2024-01-23T11:26:00,mnr,18.66
2024-01-23T11:27:00,mnr,18.91
2024-01-23T11:28:00,mnr,18.55
2024-01-23T11:29:00,mnr,18.67
2024-01-23T11:30:00,mnr,17.93
2024-01-23T11:31:00,mnr,18.67
2024-01-23T11:32:00,mnr,18.44
2024-01-23T11:33:00,mnr,18.41
2024-01-23T11:34:00,mnr,18.66
2024-01-23T11:35:00,mnr,18.56
2024-01-23T11:36:00,mnr,18.42
2024-01-23T11:37:00,mnr,18.34
2024-01-23T11:38:00,mnr,18.30
2024-01-23T11:39:00,mnr,18.32
2024-01-23T11:40:00,mnr,18.44
2024-01-23T11:41:00,mnr,18.98
2024-01-23T11:42:00,mnr,18.30
2024-01-23T11:43:00,mnr,19.01
2024-01-23T11:44:00,mnr,19.57
2024-01-23T11:45:00,mnr,18.11
2024-01-23T11:46:00,mnr,18.78
2024-01-23T11:47:00,mnr,18.29
2024-01-23T11:48:00,mnr,18.37
2024-01-23T11:49:00,mnr,18.93
2024-01-23T11:50:00,mnr,19.09
2024-01-23T11:51:00,mnr,17.03
2024-01-23T11:52:00,mnr,17.69
2024-01-23T11:53:00,mnr,16.12
2024-01-23T11:54:00,mnr,17.94
2024-01-23T11:55:00,mnr,17.99
2024-01-23T11:56:00,mnr,18.41
2024-01-23T11:57:00,mnr,16.80
2024-01-23T11:58:00,mnr,17.99
2024-01-23T11:59:00,mnr,17.61
2024-01-23T12:00:00,mnr,16.87
2024-01-23T12:01:00,mnr,17.26
2024-01-23T12:02:00,mnr,18.40
2024-01-23T12:03:00,mnr,17.57
2024-01-23T12:04:00,mnr,17.80
2024-01-23T12:05:00,mnr,17.89
2024-01-23T12:06:00,mnr,18.00
2024-01-23T12:07:00,mnr,17.01
2024-01-23T12:08:00,mnr,17.17
2024-01-23T12:09:00,mnr,17.70
2024-01-23T12:10:00,mnr,17.22
2024-01-23T12:11:00,mnr,17.76
2024-01-23T12:12:00,mnr,17.34
2024-01-23T12:13:00,mnr,18.16
2024-01-23T12:14:00,mnr,16.91
2024-01-23T12:15:00,mnr,16.98
2024-01-23T12:16:00,mnr,18.39
2024-01-23T12:17:00,mnr,19.43
2024-01-23T12:18:00,mnr,19.27
2024-01-23T12:19:00,mnr,17.80
2024-01-23T12:20:00,mnr,17.83
2024-01-23T12:21:00,mnr,17.97
2024-01-23T12:22:00,mnr,18.40
2024-01-23T12:23:00,mnr,17.27
2024-01-23T12:24:00,mnr,17.27
2024-01-23T12:25:00,mnr,17.21
2024-01-23T12:26:00,mnr,17.24
2024-01-23T12:27:00,mnr,17.18
2024-01-23T12:28:00,mnr,16.99
2024-01-23T12:29:00,mnr,18.28
2024-01-23T12:30:00,mnr,17.69
2024-01-23T12:31:00,mnr,18.74
2024-01-23T12:32:00,mnr,18.48
2024-01-23T12:33:00,mnr,18.47
2024-01-23T12:34:00,mnr,18.59
2024-01-23T12:35:00,mnr,26.31
2024-01-23T12:36:00,mnr,16.66
2024-01-23T12:37:00,mnr,16.57
2024-01-23T12:38:00,mnr,16.58
2024-01-23T12:39:00,mnr,17.77
2024-01-23T12:40:00,mnr,16.87
2024-01-23T12:41:00,mnr,17.24
2024-01-23T12:42:00,mnr,16.58
2024-01-23T12:43:00,mnr,16.42
2024-01-23T12:44:00,mnr,16.17
2024-01-23T12:45:00,mnr,16.23
2024-01-23T12:46:00,mnr,16.21
2024-01-23T12:47:00,mnr,16.18
2024-01-23T12:48:00,mnr,16.80
2024-01-23T12:49:00,mnr,16.93
2024-01-23T12:50:00,mnr,16.14
2024-01-23T12:51:00,mnr,16.35
2024-01-23T12:52:00,mnr,16.30
2024-01-23T12:53:00,mnr,16.33
2024-01-23T12:54:00,mnr,16.28
2024-01-23T12:55:00,mnr,19.44
2024-01-23T12:56:00,mnr,16.19
2024-01-23T12:57:00,mnr,16.22
2024-01-23T12:58:00,mnr,16.33
2024-01-23T12:59:00,mnr,12.67
2024-01-23T13:00:00,mnr,16.74
2024-01-23T13:01:00,mnr,16.53
2024-01-23T13:02:00,mnr,16.56
2024-01-23T13:03:00,mnr,16.45
2024-01-23T13:04:00,mnr,16.54
2024-01-23T13:05:00,mnr,16.46
2024-01-23T13:06:00,mnr,16.71
2024-01-23T13:07:00,mnr,18.16
2024-01-23T13:08:00,mnr,16.24
2024-01-23T13:09:00,mnr,16.28
2024-01-23T13:10:00,mnr,15.82
2024-01-23T13:11:00,mnr,15.83
2024-01-23T13:12:00,mnr,16.79
2024-01-23T13:13:00,mnr,16.03
2024-01-23T13:14:00,mnr,15.85
2024-01-23T13:15:00,mnr,24.90
2024-01-23T13:16:00,mnr,16.06
2024-01-23T13:17:00,mnr,17.08
2024-01-23T13:18:00,mnr,15.97
2024-01-23T13:19:00,mnr,17.66
2024-01-23T13:20:00,mnr,16.36
2024-01-23T13:21:00,mnr,15.86
2024-01-23T13:22:00,mnr,16.25
2024-01-23T13:23:00,mnr,16.83
2024-01-23T13:24:00,mnr,17.07
2024-01-23T13:25:00,mnr,15.83
2024-01-23T13:26:00,mnr,15.79
2024-01-23T13:27:00,mnr,15.79
2024-01-23T13:28:00,mnr,15.72
2024-01-23T13:29:00,mnr,15.85
2024-01-23T13:30:00,mnr,15.90
2024-01-23T13:31:00,mnr,15.80
2024-01-23T13:32:00,mnr,15.85
2024-01-23T13:33:00,mnr,15.94
2024-01-23T13:34:00,mnr,15.75
2024-01-23T13:35:00,mnr,15.92
2024-01-23T13:36:00,mnr,15.76
2024-01-23T13:37:00,mnr,15.78
2024-01-23T13:38:00,mnr,15.71
2024-01-23T13:39:00,mnr,15.62
2024-01-23T13:40:00,mnr,15.70
2024-01-23T13:41:00,mnr,15.77
2024-01-23T13:42:00,mnr,15.76
2024-01-23T13:43:00,mnr,15.75
2024-01-23T13:44:00,mnr,15.69
2024-01-23T13:45:00,mnr,15.95
2024-01-23T13:46:00,mnr,16.38
2024-01-23T13:47:00,mnr,15.95
2024-01-23T13:48:00,mnr,16.60
2024-01-23T13:49:00,mnr,15.81
2024-01-23T13:50:00,mnr,15.79
2024-01-23T13:51:00,mnr,15.79
2024-01-23T13:52:00,mnr,15.13
2024-01-23T13:53:00,mnr,16.14
2024-01-23T13:54:00,mnr,16.62
2024-01-23T13:55:00,mnr,16.40
2024-01-23T13:56:00,mnr,16.47
2024-01-23T13:57:00,mnr,16.97
2024-01-23T13:58:00,mnr,16.84
2024-01-23T13:59:00,mnr,17.16
2024-01-23T14:00:00,mnr,21.74
2024-01-23T14:01:00,mnr,17.90
2024-01-23T14:02:00,mnr,16.97
2024-01-23T14:03:00,mnr,17.09
2024-01-23T14:04:00,mnr,16.90
2024-01-23T14:05:00,mnr,16.99
2024-01-23T14:06:00,mnr,16.70
2024-01-23T14:07:00,mnr,16.79
2024-01-23T14:08:00,mnr,17.83
2024-01-23T14:09:00,mnr,16.67
2024-01-23T14:10:00,mnr,16.63
2024-01-23T14:11:00,mnr,16.83
2024-01-23T14:12:00,mnr,16.49
2024-01-23T14:13:00,mnr,18.04
2024-01-23T14:14:00,mnr,16.85
2024-01-23T14:15:00,mnr,16.97
2024-01-23T14:16:00,mnr,18.45
2024-01-23T14:17:00,mnr,17.77
2024-01-23T14:18:00,mnr,17.63
2024-01-23T14:19:00,mnr,16.59
2024-01-23T14:20:00,mnr,16.38
2024-01-23T14:21:00,mnr,16.31
2024-01-23T14:22:00,mnr,16.44
2024-01-23T14:23:00,mnr,16.30
2024-01-23T14:24:00,mnr,16.22
2024-01-23T14:25:00,mnr,16.17
2024-01-23T14:26:00,mnr,16.33
2024-01-23T14:27:00,mnr,16.23
2024-01-23T14:28:00,mnr,16.31
2024-01-23T14:29:00,mnr,16.35
2024-01-23T14:30:00,mnr,16.23
2024-01-23T14:31:00,mnr,17.29
2024-01-23T14:32:00,mnr,16.38
2024-01-23T14:33:00,mnr,16.55
2024-01-23T14:34:00,mnr,16.72
2024-01-23T14:35:00,mnr,16.41
2024-01-23T14:36:00,mnr,16.46
2024-01-23T14:37:00,mnr,16.99
2024-01-23T14:38:00,mnr,16.43
2024-01-23T14:39:00,mnr,16.37
2024-01-23T14:40:00,mnr,17.04
2024-01-23T14:41:00,mnr,17.10
2024-01-23T14:42:00,mnr,16.45
2024-01-23T14:43:00,mnr,16.40
2024-01-23T14:44:00,mnr,16.44
2024-01-23T14:45:00,mnr,16.81
2024-01-23T14:46:00,mnr,16.53
2024-01-23T14:47:00,mnr,16.43
2024-01-23T14:48:00,mnr,16.49
2024-01-23T14:49:00,mnr,16.45
2024-01-23T14:50:00,mnr,16.59
2024-01-23T14:51:00,mnr,16.80
2024-01-23T14:52:00,mnr,16.59
2024-01-23T14:53:00,mnr,16.41
2024-01-23T14:54:00,mnr,16.50
2024-01-23T14:55:00,mnr,16.72
2024-01-23T14:56:00,mnr,16.68
2024-01-23T14:57:00,mnr,16.63
2024-01-23T14:58:00,mnr,16.74
2024-01-23T14:59:00,mnr,16.40
2024-01-23T15:00:00,mnr,17.68
2024-01-23T15:01:00,mnr,17.43
2024-01-23T15:02:00,mnr,17.68
2024-01-23T15:03:00,mnr,17.27
2024-01-23T15:04:00,mnr,16.94
2024-01-23T15:05:00,mnr,17.02
2024-01-23T15:06:00,mnr,17.68
2024-01-23T15:07:00,mnr,17.31
2024-01-23T15:08:00,mnr,17.68
2024-01-23T15:09:00,mnr,16.84
2024-01-23T15:10:00,mnr,18.04
2024-01-23T15:11:00,mnr,17.24
2024-01-23T15:12:00,mnr,16.13
2024-01-23T15:13:00,mnr,16.14
2024-01-23T15:14:00,mnr,16.04
2024-01-23T15:15:00,mnr,16.24
2024-01-23T15:16:00,mnr,16.83
2024-01-23T15:17:00,mnr,13.28
2024-01-23T15:18:00,mnr,16.22
2024-01-23T15:19:00,mnr,17.46
2024-01-23T15:20:00,mnr,16.67
2024-01-23T15:21:00,mnr,16.76
2024-01-23T15:22:00,mnr,16.43
2024-01-23T15:23:00,mnr,16.89
2024-01-23T15:24:00,mnr,16.41
2024-01-23T15:25:00,mnr,16.59
2024-01-23T15:26:00,mnr,16.48
2024-01-23T15:27:00,mnr,16.31
2024-01-23T15:28:00,mnr,16.37
2024-01-23T15:29:00,mnr,16.20
2024-01-23T15:30:00,mnr,16.20
2024-01-23T15:31:00,mnr,16.30
2024-01-23T15:32:00,mnr,16.37
2024-01-23T15:33:00,mnr,16.24
2024-01-23T15:34:00,mnr,17.07
2024-01-23T15:35:00,mnr,16.34
2024-01-23T15:36:00,mnr,16.56
2024-01-23T15:37:00,mnr,16.51
2024-01-23T15:38:00,mnr,16.26
2024-01-23T15:39:00,mnr,16.17
2024-01-23T15:40:00,mnr,16.09
2024-01-23T15:41:00,mnr,16.64
2024-01-23T15:42:00,mnr,17.58
2024-01-23T15:43:00,mnr,17.22
2024-01-23T15:44:00,mnr,17.32
2024-01-23T15:45:00,mnr,17.26
2024-01-23T15:46:00,mnr,17.33
2024-01-23T15:47:00,mnr,18.29
2024-01-23T15:48:00,mnr,17.53
2024-01-23T15:49:00,mnr,17.39
2024-01-23T15:50:00,mnr,17.42
2024-01-23T15:51:00,mnr,17.38
2024-01-23T15:52:00,mnr,17.22
2024-01-23T15:53:00,mnr,17.48
2024-01-23T15:54:00,mnr,17.23
2024-01-23T15:55:00,mnr,17.41
2024-01-23T15:56:00,mnr,17.39
2024-01-23T15:57:00,mnr,17.20
2024-01-23T15:58:00,mnr,16.76
2024-01-23T15:59:00,mnr,16.48
2024-01-23T16:00:00,mnr,16.56
2024-01-23T16:01:00,mnr,17.11
2024-01-23T16:02:00,mnr,16.64
2024-01-23T16:03:00,mnr,16.52
2024-01-23T16:04:00,mnr,17.39
2024-01-23T16:05:00,mnr,16.47
2024-01-23T16:06:00,mnr,17.43
2024-01-23T16:07:00,mnr,17.81
2024-01-23T16:08:00,mnr,16.98
2024-01-23T16:09:00,mnr,16.90
2024-01-23T16:10:00,mnr,16.97
2024-01-23T16:11:00,mnr,16.93
2024-01-23T16:12:00,mnr,16.87
2024-01-23T16:13:00,mnr,16.83
2024-01-23T16:14:00,mnr,16.79
2024-01-23T16:15:00,mnr,16.81
2024-01-23T16:16:00,mnr,17.56
2024-01-23T16:17:00,mnr,16.72
2024-01-23T16:18:00,mnr,16.51
2024-01-23T16:19:00,mnr,16.60
2024-01-23T16:20:00,mnr,16.53
2024-01-23T16:21:00,mnr,16.50
2024-01-23T16:22:00,mnr,16.51
2024-01-23T16:23:00,mnr,17.30
2024-01-23T16:24:00,mnr,16.64
2024-01-23T16:25:00,mnr,16.65
2024-01-23T16:26:00,mnr,17.25
2024-01-23T16:27:00,mnr,16.60
2024-01-23T16:28:00,mnr,16.69
2024-01-23T16:29:00,mnr,17.45
2024-01-23T16:30:00,mnr,16.88
2024-01-23T16:31:00,mnr,17.49
2024-01-23T16:32:00,mnr,16.79
2024-01-23T16:33:00,mnr,17.81
2024-01-23T16:34:00,mnr,17.23
2024-01-23T16:35:00,mnr,17.29
2024-01-23T16:36:00,mnr,17.07
2024-01-23T16:37:00,mnr,17.13
2024-01-23T16:38:00,mnr,17.30
2024-01-23T16:39:00,mnr,17.19
2024-01-23T16:40:00,mnr,17.21
2024-01-23T16:41:00,mnr,17.56
2024-01-23T16:42:00,mnr,17.58
2024-01-23T16:43:00,mnr,17.68
2024-01-23T16:44:00,mnr,17.57
2024-01-23T16:45:00,mnr,18.52
2024-01-23T16:46:00,mnr,17.52
2024-01-23T16:47:00,mnr,17.23
2024-01-23T16:48:00,mnr,17.14
2024-01-23T16:49:00,mnr,16.14
2024-01-23T16:50:00,mnr,16.25
2024-01-23T16:51:00,mnr,16.21
2024-01-23T16:52:00,mnr,16.89
2024-01-23T16:53:00,mnr,16.45
2024-01-23T16:54:00,mnr,16.93
2024-01-23T16:55:00,mnr,16.35
2024-01-23T16:56:00,mnr,16.33
2024-01-23T16:57:00,mnr,17.31
2024-01-23T16:58:00,mnr,17.33
2024-01-23T16:59:00,mnr,16.23
2024-01-23T17:00:00,mnr,16.22
2024-01-23T17:01:00,mnr,16.59
2024-01-23T17:02:00,mnr,17.44
2024-01-23T17:03:00,mnr,16.29
2024-01-23T17:04:00,mnr,16.22
2024-01-23T17:05:00,mnr,16.06
2024-01-23T17:06:00,mnr,16.64
2024-01-23T17:07:00,mnr,16.19
2024-01-23T17:08:00,mnr,15.91
2024-01-23T17:09:00,mnr,15.91
2024-01-23T17:10:00,mnr,15.91
2024-01-23T17:11:00,mnr,16.36
2024-01-23T17:12:00,mnr,16.43
2024-01-23T17:13:00,mnr,15.86
2024-01-23T17:14:00,mnr,16.60
2024-01-23T17:15:00,mnr,15.98
2024-01-23T17:16:00,mnr,16.09
2024-01-23T17:17:00,mnr,16.00
2024-01-23T17:18:00,mnr,16.10
2024-01-23T17:19:00,mnr,16.08
2024-01-23T17:20:00,mnr,15.48
2024-01-23T17:21:00,mnr,15.51
2024-01-23T17:22:00,mnr,15.02
2024-01-23T17:23:00,mnr,15.47
2024-01-23T17:24:00,mnr,15.65
2024-01-23T17:25:00,mnr,15.09
2024-01-23T17:26:00,mnr,15.03
2024-01-23T17:27:00,mnr,15.84
2024-01-23T17:28:00,mnr,15.03
2024-01-23T17:29:00,mnr,11.63
2024-01-23T17:30:00,mnr,15.04
2024-01-23T17:31:00,mnr,15.09
2024-01-23T17:32:00,mnr,14.79
2024-01-23T17:33:00,mnr,14.76
2024-01-23T17:34:00,mnr,14.80
2024-01-23T17:35:00,mnr,14.25
2024-01-23T17:36:00,mnr,13.61
2024-01-23T17:37:00,mnr,13.50
2024-01-23T17:38:00,mnr,13.46
2024-01-23T17:39:00,mnr,13.24
2024-01-23T17:40:00,mnr,13.36
2024-01-23T17:41:00,mnr,13.34
2024-01-23T17:42:00,mnr,13.83
2024-01-23T17:43:00,mnr,13.25
2024-01-23T17:44:00,mnr,14.03
2024-01-23T17:45:00,mnr,13.32
2024-01-23T17:46:00,mnr,13.66
2024-01-23T17:47:00,mnr,13.24
2024-01-23T17:48:00,mnr,13.13
2024-01-23T17:49:00,mnr,12.71
2024-01-23T17:50:00,mnr,12.72
2024-01-23T17:51:00,mnr,12.75
2024-01-23T17:52:00,mnr,12.78
2024-01-23T17:53:00,mnr,12.73
2024-01-23T17:54:00,mnr,12.78
2024-01-23T17:55:00,mnr,13.47
2024-01-23T17:56:00,mnr,12.82
2024-01-23T17:57:00,mnr,12.75
2024-01-23T17:58:00,mnr,12.68
2024-01-23T17:59:00,mnr,12.71
2024-01-23T18:00:00,mnr,12.69
2024-01-23T18:01:00,mnr,12.79
2024-01-23T18:02:00,mnr,11.67
2024-01-23T18:03:00,mnr,10.07
2024-01-23T18:04:00,mnr,9.49
2024-01-23T18:05:00,mnr,9.21
2024-01-23T18:06:00,mnr,9.22
2024-01-23T18:07:00,mnr,7.37
2024-01-23T18:08:00,mnr,7.11
2024-01-23T18:09:00,mnr,7.39
2024-01-23T18:10:00,mnr,7.65
2024-01-23T18:11:00,mnr,7.02
2024-01-23T18:12:00,mnr,7.05
2024-01-23T18:13:00,mnr,7.13
2024-01-23T18:14:00,mnr,7.03
2024-01-23T18:15:00,mnr,7.08
2024-01-23T18:16:00,mnr,7.42
2024-01-23T18:17:00,mnr,8.03
2024-01-23T18:18:00,mnr,8.23
2024-01-23T18:19:00,mnr,8.08
2024-01-23T18:20:00,mnr,8.07
2024-01-23T18:21:00,mnr,7.74
2024-01-23T18:22:00,mnr,8.56
2024-01-23T18:23:00,mnr,9.49
2024-01-23T18:24:00,mnr,8.42
2024-01-23T18:25:00,mnr,8.22
2024-01-23T18:26:00,mnr,8.22
2024-01-23T18:27:00,mnr,7.49
2024-01-23T18:28:00,mnr,8.14
2024-01-23T18:29:00,mnr,7.54
2024-01-23T18:30:00,mnr,7.50
2024-01-23T18:31:00,mnr,7.56
2024-01-23T18:32:00,mnr,6.91
2024-01-23T18:33:00,mnr,7.56
2024-01-23T18:34:00,mnr,7.58
2024-01-23T18:35:00,mnr,7.55
2024-01-23T18:36:00,mnr,7.51
2024-01-23T18:37:00,mnr,7.49
2024-01-23T18:38:00,mnr,7.53
2024-01-23T18:39:00,mnr,7.51
2024-01-23T18:40:00,mnr,7.59
2024-01-23T18:41:00,mnr,8.27
2024-01-23T18:42:00,mnr,8.30
2024-01-23T18:43:00,mnr,8.27
2024-01-23T18:44:00,mnr,8.80
2024-01-23T18:45:00,mnr,9.05
2024-01-23T18:46:00,mnr,8.24
2024-01-23T18:47:00,mnr,8.52
2024-01-23T18:48:00,mnr,8.33
2024-01-23T18:49:00,mnr,7.72
2024-01-23T18:50:00,mnr,7.66
2024-01-23T18:51:00,mnr,7.41
2024-01-23T18:52:00,mnr,7.36
2024-01-23T18:53:00,mnr,7.33
2024-01-23T18:54:00,mnr,7.80
2024-01-23T18:55:00,mnr,7.05
2024-01-23T18:56:00,mnr,6.58
2024-01-23T18:57:00,mnr,6.62
2024-01-23T18:58:00,mnr,6.67
2024-01-23T18:59:00,mnr,6.66
2024-01-23T19:00:00,mnr,8.11
2024-01-23T19:01:00,mnr,7.77
2024-01-23T19:02:00,mnr,8.75
2024-01-23T19:03:00,mnr,7.84
2024-01-23T19:04:00,mnr,7.74
2024-01-23T19:05:00,mnr,8.16
2024-01-23T19:06:00,mnr,8.11
2024-01-23T19:07:00,mnr,8.01
2024-01-23T19:08:00,mnr,8.22
2024-01-23T19:09:00,mnr,8.18
2024-01-23T19:10:00,mnr,9.16
2024-01-23T19:11:00,mnr,8.99
2024-01-23T19:12:00,mnr,8.96
2024-01-23T19:13:00,mnr,9.06
2024-01-23T19:14:00,mnr,9.10
2024-01-23T19:15:00,mnr,9.09
2024-01-23T19:16:00,mnr,9.13
2024-01-23T19:17:00,mnr,9.14
2024-01-23T19:18:00,mnr,9.32
2024-01-23T19:19:00,mnr,9.93
2024-01-23T19:20:00,mnr,8.90
2024-01-23T19:21:00,mnr,8.61
2024-01-23T19:22:00,mnr,8.62
2024-01-23T19:23:00,mnr,8.20
2024-01-23T19:24:00,mnr,8.74
2024-01-23T19:25:00,mnr,8.11
2024-01-23T19:26:00,mnr,8.57
2024-01-23T19:27:00,mnr,7.67
2024-01-23T19:28:00,mnr,8.29
2024-01-23T19:29:00,mnr,8.34
2024-01-23T19:30:00,mnr,7.70
2024-01-23T19:31:00,mnr,7.76
2024-01-23T19:32:00,mnr,7.10
2024-01-23T19:33:00,mnr,6.86
2024-01-23T19:34:00,mnr,7.59
2024-01-23T19:35:00,mnr,7.64
2024-01-23T19:36:00,mnr,7.62
2024-01-23T19:37:00,mnr,7.73
2024-01-23T19:38:00,mnr,7.73
2024-01-23T19:39:00,mnr,7.70
2024-01-23T19:40:00,mnr,8.28
2024-01-23T19:41:00,mnr,8.35
2024-01-23T19:42:00,mnr,7.11
2024-01-23T19:43:00,mnr,7.14
2024-01-23T19:44:00,mnr,6.88
2024-01-23T19:45:00,mnr,6.84
2024-01-23T19:46:00,mnr,6.89
2024-01-23T19:47:00,mnr,7.39
2024-01-23T19:48:00,mnr,6.21
2024-01-23T19:49:00,mnr,6.20
2024-01-23T19:50:00,mnr,6.52
2024-01-23T19:51:00,mnr,6.76
2024-01-23T19:52:00,mnr,6.47
2024-01-23T19:53:00,mnr,6.87
2024-01-23T19:54:00,mnr,6.35
2024-01-23T19:55:00,mnr,7.15
2024-01-23T19:56:00,mnr,7.18
2024-01-23T19:57:00,mnr,7.46
2024-01-23T19:58:00,mnr,7.22
2024-01-23T19:59:00,mnr,7.10
2024-01-23T20:00:00,mnr,7.35
2024-01-23T20:01:00,mnr,7.18
2024-01-23T20:02:00,mnr,7.34
2024-01-23T20:03:00,mnr,7.88
2024-01-23T20:04:00,mnr,7.93
2024-01-23T20:05:00,mnr,8.01
2024-01-23T20:06:00,mnr,8.40
2024-01-23T20:07:00,mnr,8.30
2024-01-23T20:08:00,mnr,8.39
2024-01-23T20:09:00,mnr,8.87
2024-01-23T20:10:00,mnr,18.91
2024-01-23T20:11:00,mnr,10.03
2024-01-23T20:12:00,mnr,9.29
2024-01-23T20:13:00,mnr,9.33
2024-01-23T20:14:00,mnr,9.90
2024-01-23T20:15:00,mnr,9.07
2024-01-23T20:16:00,mnr,10.29
2024-01-23T20:17:00,mnr,10.00
2024-01-23T20:18:00,mnr,9.69
2024-01-23T20:19:00,mnr,9.45
2024-01-23T20:20:00,mnr,9.45
2024-01-23T20:21:00,mnr,9.44
2024-01-23T20:22:00,mnr,8.77
2024-01-23T20:23:00,mnr,9.06
2024-01-23T20:24:00,mnr,8.48
2024-01-23T20:25:00,mnr,8.54
2024-01-23T20:26:00,mnr,8.37
2024-01-23T20:27:00,mnr,8.33
2024-01-23T20:28:00,mnr,8.21
2024-01-23T20:29:00,mnr,8.38
2024-01-23T20:30:00,mnr,8.32
2024-01-23T20:31:00,mnr,7.80
2024-01-23T20:32:00,mnr,7.78
2024-01-23T20:33:00,mnr,7.72
2024-01-23T20:34:00,mnr,7.84
2024-01-23T20:35:00,mnr,5.21
2024-01-23T20:36:00,mnr,9.13
2024-01-23T20:37:00,mnr,8.65
2024-01-23T20:38:00,mnr,8.70
2024-01-23T20:39:00,mnr,8.66
2024-01-23T20:40:00,mnr,8.80
2024-01-23T20:41:00,mnr,8.95
2024-01-23T20:42:00,mnr,8.96
2024-01-23T20:43:00,mnr,8.64
2024-01-23T20:44:00,mnr,8.77
2024-01-23T20:45:00,mnr,8.79
2024-01-23T20:46:00,mnr,8.83
2024-01-23T20:47:00,mnr,8.48
2024-01-23T20:48:00,mnr,8.55
2024-01-23T20:49:00,mnr,8.30
2024-01-23T20:50:00,mnr,8.36
2024-01-23T20:51:00,mnr,8.44
2024-01-23T20:52:00,mnr,8.36
2024-01-23T20:53:00,mnr,7.67
2024-01-23T20:54:00,mnr,7.64
2024-01-23T20:55:00,mnr,7.44
2024-01-23T20:56:00,mnr,7.22
2024-01-23T20:57:00,mnr,6.72
2024-01-23T20:58:00,mnr,6.74
2024-01-23T20:59:00,mnr,6.92
2024-01-23T21:00:00,mnr,7.42
2024-01-23T21:01:00,mnr,6.99
2024-01-23T21:02:00,mnr,7.14
2024-01-23T21:03:00,mnr,7.04
2024-01-23T21:04:00,mnr,7.89
2024-01-23T21:05:00,mnr,7.92
2024-01-23T21:06:00,mnr,7.71
2024-01-23T21:07:00,mnr,7.79
2024-01-23T21:08:00,mnr,8.06
2024-01-23T21:09:00,mnr,7.58
2024-01-23T21:10:00,mnr,7.72
2024-01-23T21:11:00,mnr,8.90
2024-01-23T21:12:00,mnr,7.76
2024-01-23T21:13:00,mnr,8.94
2024-01-23T21:14:00,mnr,8.89
2024-01-23T21:15:00,mnr,9.57
2024-01-23T21:16:00,mnr,9.57
2024-01-23T21:17:00,mnr,8.96
2024-01-23T21:18:00,mnr,8.48
2024-01-23T21:19:00,mnr,9.22
2024-01-23T21:20:00,mnr,8.66
2024-01-23T21:21:00,mnr,8.45
2024-01-23T21:22:00,mnr,7.85
2024-01-23T21:23:00,mnr,7.66
2024-01-23T21:24:00,mnr,7.61
2024-01-23T21:25:00,mnr,6.95
2024-01-23T21:26:00,mnr,7.77
2024-01-23T21:27:00,mnr,7.25
2024-01-23T21:28:00,mnr,7.07
2024-01-23T21:29:00,mnr,7.05
2024-01-23T21:30:00,mnr,7.00
2024-01-23T21:31:00,mnr,7.19
2024-01-23T21:32:00,mnr,7.03
2024-01-23T21:33:00,mnr,6.91
2024-01-23T21:34:00,mnr,7.52
2024-01-23T21:35:00,mnr,7.11
2024-01-23T21:36:00,mnr,7.12
2024-01-23T21:37:00,mnr,7.14
2024-01-23T21:38:00,mnr,6.67
2024-01-23T21:39:00,mnr,6.81
2024-01-23T21:40:00,mnr,7.44
2024-01-23T21:41:00,mnr,6.36
2024-01-23T21:42:00,mnr,6.32
2024-01-23T21:43:00,mnr,6.92
2024-01-23T21:44:00,mnr,6.10
2024-01-23T21:45:00,mnr,6.16
2024-01-23T21:46:00,mnr,6.26
2024-01-23T21:47:00,mnr,5.94
2024-01-23T21:48:00,mnr,6.45
2024-01-23T21:49:00,mnr,5.79
2024-01-23T21:50:00,mnr,7.04
2024-01-23T21:51:00,mnr,6.76
2024-01-23T21:52:00,mnr,6.76
2024-01-23T21:53:00,mnr,7.23
2024-01-23T21:54:00,mnr,6.64
2024-01-23T21:55:00,mnr,6.66
2024-01-23T21:56:00,mnr,7.37
2024-01-23T21:57:00,mnr,7.44
2024-01-23T21:58:00,mnr,7.73
2024-01-23T21:59:00,mnr,7.78
2024-01-23T22:00:00,mnr,7.75
2024-01-23T22:01:00,mnr,7.51
2024-01-23T22:02:00,mnr,7.55
2024-01-23T22:03:00,mnr,7.51
2024-01-23T22:04:00,mnr,6.95
2024-01-23T22:05:00,mnr,6.85
2024-01-23T22:06:00,mnr,7.04
2024-01-23T22:07:00,mnr,6.97
2024-01-23T22:08:00,mnr,6.79
2024-01-23T22:09:00,mnr,6.77
2024-01-23T22:10:00,mnr,6.10
2024-01-23T22:11:00,mnr,6.70
2024-01-23T22:12:00,mnr,7.06
2024-01-23T22:13:00,mnr,6.86
2024-01-23T22:14:00,mnr,7.77
2024-01-23T22:15:00,mnr,6.76
2024-01-23T22:16:00,mnr,7.41
2024-01-23T22:17:00,mnr,7.31
2024-01-23T22:18:00,mnr,7.45
2024-01-23T22:19:00,mnr,6.89
2024-01-23T22:20:00,mnr,7.16
2024-01-23T22:21:00,mnr,7.41
2024-01-23T22:22:00,mnr,7.22
2024-01-23T22:23:00,mnr,7.22
2024-01-23T22:24:00,mnr,7.19
2024-01-23T22:25:00,mnr,7.20
2024-01-23T22:26:00,mnr,7.69
2024-01-23T22:27:00,mnr,7.02
2024-01-23T22:28:00,mnr,7.06
2024-01-23T22:29:00,mnr,8.47
2024-01-23T22:30:00,mnr,7.17
2024-01-23T22:31:00,mnr,7.18
2024-01-23T22:32:00,mnr,7.68
2024-01-23T22:33:00,mnr,7.24
2024-01-23T22:34:00,mnr,6.98
2024-01-23T22:35:00,mnr,6.50
2024-01-23T22:36:00,mnr,6.53
2024-01-23T22:37:00,mnr,5.77
2024-01-23T22:38:00,mnr,5.69
2024-01-23T22:39:00,mnr,7.22
2024-01-23T22:40:00,mnr,7.26
2024-01-23T22:41:00,mnr,7.38
2024-01-23T22:42:00,mnr,7.42
2024-01-23T22:43:00,mnr,7.45
2024-01-23T22:44:00,mnr,7.49
2024-01-23T22:45:00,mnr,7.43
2024-01-23T22:46:00,mnr,8.34
2024-01-23T22:47:00,mnr,8.69
2024-01-23T22:48:00,mnr,8.58
2024-01-23T22:49:00,mnr,10.33
2024-01-23T22:50:00,mnr,9.66
2024-01-23T22:51:00,mnr,9.63
2024-01-23T22:52:00,mnr,9.94
2024-01-23T22:53:00,mnr,8.27
2024-01-23T22:54:00,mnr,8.70
2024-01-23T22:55:00,mnr,8.79
2024-01-23T22:56:00,mnr,9.15
2024-01-23T22:57:00,mnr,8.89
2024-01-23T22:58:00,mnr,9.05
2024-01-23T22:59:00,mnr,9.75
2024-01-23T23:00:00,mnr,10.14
2024-01-23T23:01:00,mnr,9.72
2024-01-23T23:02:00,mnr,8.59
2024-01-23T23:03:00,mnr,9.15
2024-01-23T23:04:00,mnr,9.20
2024-01-23T23:05:00,mnr,9.11
2024-01-23T23:06:00,mnr,11.40
2024-01-23T23:07:00,mnr,9.48
2024-01-23T23:08:00,mnr,10.71
2024-01-23T23:09:00,mnr,10.17
2024-01-23T23:10:00,mnr,9.63
2024-01-23T23:11:00,mnr,9.59
2024-01-23T23:12:00,mnr,8.96
2024-01-23T23:13:00,mnr,14.91
2024-01-23T23:14:00,mnr,8.95
2024-01-23T23:15:00,mnr,8.34
2024-01-23T23:16:00,mnr,8.37
2024-01-23T23:17:00,mnr,8.29
2024-01-23T23:18:00,mnr,9.74
2024-01-23T23:19:00,mnr,7.99
2024-01-23T23:20:00,mnr,7.66
2024-01-23T23:21:00,mnr,7.81
2024-01-23T23:22:00,mnr,7.79
2024-01-23T23:23:00,mnr,8.90
2024-01-23T23:24:00,mnr,8.72
2024-01-23T23:25:00,mnr,8.07
2024-01-23T23:26:00,mnr,7.60
2024-01-23T23:27:00,mnr,7.25
2024-01-23T23:28:00,mnr,8.35
2024-01-23T23:29:00,mnr,8.35
2024-01-23T23:30:00,mnr,8.43
2024-01-23T23:31:00,mnr,6.89
2024-01-23T23:32:00,mnr,13.06
2024-01-23T23:33:00,mnr,6.90
2024-01-23T23:34:00,mnr,6.91
2024-01-23T23:35:00,mnr,7.03
2024-01-23T23:36:00,mnr,6.88
2024-01-23T23:37:00,mnr,8.01
2024-01-23T23:38:00,mnr,7.91
2024-01-23T23:39:00,mnr,7.92
2024-01-23T23:40:00,mnr,7.10
2024-01-23T23:41:00,mnr,6.59
2024-01-23T23:42:00,mnr,6.44
2024-01-23T23:43:00,mnr,6.46
2024-01-23T23:44:00,mnr,6.50
2024-01-23T23:45:00,mnr,7.12
2024-01-23T23:46:00,mnr,7.48
2024-01-23T23:47:00,mnr,7.98
2024-01-23T23:48:00,mnr,7.48
2024-01-23T23:49:00,mnr,7.48
2024-01-23T23:50:00,mnr,7.57
2024-01-23T23:51:00,mnr,7.60
2024-01-23T23:52:00,mnr,7.57
2024-01-23T23:53:00,mnr,7.67
2024-01-23T23:54:00,mnr,7.54
2024-01-23T23:55:00,mnr,7.55
2024-01-23T23:56:00,mnr,7.59
2024-01-23T23:57:00,mnr,7.22
2024-01-23T23:58:00,mnr,7.20
2024-01-23T23:59:00,mnr,6.62
